Вернуться в каталог

STARLINK-36502

АктивенСвязьVLEO
NORAD 67627·PAYLOAD·🇺🇸 United States

Запущен Jan 30, 2026 с Cape Canaveral Space Force Station

Loading…

Ближайшие Пролёты (ближайшие 24 часа)

TLE

СвежийSource: CelesTrak SupGP

Эпоха: Sep 14, 2026, 23:00 UTC

1 67627C 26020L   26257.95881944 -.00037596  00000+0 -13617-2 0  2576
2 67627  43.0005 150.7932 0001350 269.3552 358.0953 15.27597932    14

Отслеживайте STARLINK-36502 в реальном времени с AllMySat

Download on the App Store